Change the Weather History Date:

Wednesday, June 5, 2013

  Actual Average Record
Temperature  
Mean Temperature 59 °F 64 °F  
Max Temperature 70 °F 76 °F 98 °F (1933)
Min Temperature 48 °F 53 °F 31 °F (1894)
Degree Days  
Heating Degree Days 6 3  
Month to date heating degree days 36 17  
Since 1 June heating degree days 36 17  
Since 1 July heating degree days 8178 7638  
Cooling Degree Days 0 2  
Month to date cooling degree days 0 10  
Year to date cooling degree days 38 43  
Since 1 June cooling degree days 0 10  
Growing Degree Days 11 (Base 50)    
Moisture  
Dew Point 50 °F    
Average Humidity 74    
Maximum Humidity 96    
Minimum Humidity 51    
Precipitation  
Precipitation 0.00 in 0.14 in 2.09 in (2008)
Month to date precipitation 0.15 0.70  
Year to date precipitation 10.74 8.68  
Snow  
Snow 0.00 in 0.00 in 0.00 in ()
Month to date snowfall 0.0 0.0  
Since 1 June snowfall 0.0 0.0  
Since 1 July snowfall 60.1 43.9  
Snow Depth 0.00 in    
Sea Level Pressure  
Sea Level Pressure 30.01 in    
Wind  
Wind Speed 13 mph (NW)    
Max Wind Speed 24 mph    
Max Gust Speed 30 mph    
Visibility 10 miles    
Events      
T = Trace of Precipitation, MM = Missing Value Source: NWS Daily Summary

Daily Weather History Graph

Daily Weather History Graph

Search for Another Location

Airport or City:

Trip Planner

Search our weather history database for the weather conditions in past years. The results will help you decide how hot, cold, wet, or windy it might be!

Date:

Astronomy

Jun. 05, 2013 Rise Set
Actual Time 5:49 AM CDT 9:13 PM CDT
Civil Twilight 5:13 AM CDT 9:49 PM CDT
Nautical Twilight 4:26 AM CDT 10:37 PM CDT
Astronomical Twilight 3:27 AM CDT 11:36 PM CDT
Moon 4:00 AM CDT (6/5) 6:36 PM CDT (6/5)
Length of Visible Light 16h 36m
Length of Day
15h 23m
Waning Crescent, 8% of the Moon is Illuminated
Jun 5
Waning Crescent
Jun 8
New
Jun 16
First Quarter
Jun 23
Full
Jun 29
Last Quarter

Hourly Weather History & Observations

Time (CDT) Temp. Dew Point Humidity Pressure Visibility Wind Dir Wind Speed Gust Speed Precip Events Conditions
12:55 AM 57.0 °F 46.9 °F 69% 30.03 in 10.0 mi West 10.4 mph - N/A   Overcast
1:55 AM 55.9 °F 46.9 °F 72% 30.02 in 10.0 mi West 12.7 mph - N/A   Overcast
2:55 AM 54.0 °F 46.9 °F 77% 30.01 in 10.0 mi WNW 17.3 mph 23.0 mph N/A   Mostly Cloudy
3:55 AM 53.1 °F 46.9 °F 80% 30.00 in 10.0 mi West 13.8 mph - N/A   Mostly Cloudy
4:55 AM 53.1 °F 46.9 °F 80% 30.01 in 10.0 mi West 12.7 mph - N/A   Mostly Cloudy
5:55 AM 53.1 °F 46.9 °F 80% 30.00 in 10.0 mi West 13.8 mph - N/A   Overcast
6:55 AM 54.0 °F 46.9 °F 77% 30.00 in 10.0 mi WNW 16.1 mph 26.5 mph N/A   Overcast
7:55 AM 54.0 °F 48.0 °F 80% 30.00 in 10.0 mi WNW 19.6 mph 27.6 mph N/A   Overcast
8:55 AM 55.9 °F 48.9 °F 77% 30.01 in 10.0 mi NW 19.6 mph 25.3 mph N/A   Overcast
9:18 AM 57.2 °F 48.2 °F 72% 30.02 in 10.0 mi NW 18.4 mph 25.3 mph N/A   Mostly Cloudy
9:27 AM 57.2 °F 48.2 °F 72% 30.02 in 10.0 mi NW 17.3 mph - N/A   Mostly Cloudy
9:55 AM 57.0 °F 50.0 °F 77% 30.02 in 10.0 mi NW 16.1 mph 21.9 mph N/A   Overcast
10:55 AM 60.1 °F 51.1 °F 72% 30.01 in 10.0 mi NW 15.0 mph 20.7 mph N/A   Overcast
11:19 AM 60.8 °F 51.8 °F 72% 30.01 in 10.0 mi NW 13.8 mph - N/A   Overcast
11:55 AM 62.1 °F 51.1 °F 67% 30.01 in 10.0 mi NW 13.8 mph 20.7 mph N/A   Overcast
12:55 PM 63.0 °F 52.0 °F 67% 30.00 in 10.0 mi NW 12.7 mph - N/A   Mostly Cloudy
1:55 PM 63.0 °F 52.0 °F 67% 30.00 in 10.0 mi NNW 17.3 mph 23.0 mph N/A   Overcast
2:55 PM 66.0 °F 53.1 °F 63% 29.99 in 10.0 mi NNW 11.5 mph 18.4 mph N/A   Overcast
3:55 PM 63.0 °F 53.1 °F 70% 30.00 in 10.0 mi NNE 6.9 mph - N/A   Overcast
4:55 PM 64.0 °F 53.1 °F 67% 29.99 in 10.0 mi NNW 6.9 mph - N/A   Overcast
5:55 PM 69.1 °F 50.0 °F 51% 29.99 in 10.0 mi North 10.4 mph - N/A   Overcast
6:55 PM 64.9 °F 52.0 °F 63% 30.00 in 10.0 mi North 18.4 mph - N/A   Overcast
7:55 PM 64.0 °F 53.1 °F 67% 30.01 in 10.0 mi North 13.8 mph - N/A   Overcast
8:55 PM 60.1 °F 51.1 °F 72% 30.02 in 10.0 mi NNE 11.5 mph - N/A   Clear
9:55 PM 57.0 °F 51.1 °F 81% 30.04 in 10.0 mi North 9.2 mph - N/A   Clear
10:55 PM 52.0 °F 50.0 °F 93% 30.05 in 10.0 mi NNW 6.9 mph - N/A   Clear
11:55 PM 50.0 °F 48.9 °F 96% 30.06 in 10.0 mi NW 4.6 mph - N/A   Clear